RH
59 57 55 51 46 42 40 41 43 45 44 43 40 37 36 37 38 38 38 39 35 31 32 33 35 36 38 39 38 37 36 32 29 31 35 39 42 42 41 38 36 35 36 38 39 39 36 34 32 30 28 27 28 28 29 31 32 33 34 34 34 35 36 36 38 43 49 51 54 56 57 64 70 65 58 54 57 57 45 38 39 38 41 39 32
56 52 47 43 41 41 43 44 46 46 44 42 41 38 34 35 37 38 39 39 34 30 32 33 34 35 37 38 38 37 37 35 33 33 35 39 41 41 40 39 37 38 40 41 41 40 38 36 34 32 31 29 28 28 28 29 29 30 31 32 32 31 32 32 33 36 42 47 50 49 48 54 64 66 61 52 51 53 45 39 38 36 36 34 30
49 44 40 40 41 43 46 47 47 45 44 41 40 38 35 34 35 37 39 39 34 30 31 32 32 34 36 37 38 38 38 37 36 36 36 38 40 40 40 38 38 39 41 42 42 41 40 38 36 34 34 33 31 30 28 28 28 29 30 30 30 30 28 26 28 32 35 40 43 43 42 45 55 64 65 55 48 49 45 40 38 36 34 32 30
45 43 43 43 42 44 46 46 46 44 43 42 39 36 34 34 34 37 38 37 34 30 30 31 31 33 36 37 36 37 39 39 39 39 39 39 40 39 38 37 38 40 41 42 43 42 41 39 37 35 34 35 34 33 31 30 29 29 29 30 29 27 24 21 24 27 31 36 39 39 38 38 42 54 62 57 49 48 46 41 39 37 35 35 35
48 48 47 46 45 46 46 45 45 45 44 42 38 34 33 34 35 37 37 36 34 30 30 31 31 33 36 36 36 37 40 41 40 40 42 41 41 40 40 39 39 41 41 42 43 43 41 39 37 35 34 35 36 36 34 32 32 30 30 30 29 27 24 21 20 21 25 30 34 36 37 35 34 40 52 57 51 47 47 44 41 40 37 37 39
52 50 49 49 49 49 48 47 47 45 43 41 38 34 33 34 36 36 35 35 33 30 29 31 32 34 36 37 37 38 41 41 39 40 43 44 44 45 45 44 44 44 43 42 43 43 42 40 38 37 35 34 35 37 36 34 32 31 31 30 30 29 26 24 21 18 19 21 26 32 36 34 31 33 42 53 54 48 47 46 43 41 39 39 40
52 52 51 52 52 51 50 48 46 43 42 41 39 36 33 33 34 35 35 35 34 30 30 31 33 35 37 38 38 38 40 39 40 41 43 45 46 47 47 46 46 46 47 45 43 44 43 42 40 38 36 35 34 35 36 34 32 30 30 30 30 30 28 26 23 20 17 16 19 25 33 34 32 33 36 46 54 51 47 45 42 41 39 39 39
52 52 53 52 50 49 46 44 42 41 41 41 39 37 34 32 32 35 36 36 35 32 32 32 32 34 37 39 39 38 38 38 40 42 43 45 46 48 47 45 44 45 46 47 46 45 44 43 41 39 38 37 35 34 34 34 32 29 28 28 28 29 29 28 26 24 20 16 15 19 26 31 33 35 35 39 48 53 51 43 38 40 38 36 36
51 51 50 48 45 42 40 40 39 39 41 41 40 40 37 34 34 35 37 37 36 35 34 33 32 34 37 38 39 39 37 37 40 42 42 44 45 46 47 46 45 45 45 46 48 49 47 45 43 41 40 38 37 35 33 33 33 31 28 26 26 27 27 27 26 25 23 19 15 16 20 25 31 35 35 35 40 48 53 46 36 36 37 36 35
48 48 45 43 41 40 39 40 40 41 42 41 41 42 40 38 37 36 37 37 36 36 36 34 32 33 35 37 39 39 38 37 38 40 41 42 43 43 45 47 47 48 47 45 48 50 48 46 44 42 41 39 38 37 34 32 32 32 30 27 25 25 26 26 26 25 25 22 17 15 17 21 27 32 35 35 35 39 46 48 41 36 34 34 35
46 46 44 43 43 43 42 42 43 44 45 44 42 43 42 41 39 37 37 37 37 37 38 36 32 33 34 35 37 38 39 37 38 38 38 40 42 42 44 47 47 49 49 46 48 50 48 47 46 44 42 39 38 38 37 35 33 32 31 29 27 25 25 25 26 25 24 25 21 16 15 17 22 28 35 37 34 33 36 41 42 42 37 32 32
45 45 45 45 44 44 45 44 45 46 46 46 46 45 44 42 40 38 37 37 37 38 38 37 34 33 33 35 36 37 39 39 38 38 37 37 39 40 42 45 46 48 49 46 47 49 48 47 47 46 44 41 40 40 40 40 39 37 33 32 31 28 26 25 26 25 24 25 24 19 16 16 18 24 34 38 36 32 31 33 36 42 44 39 32
44 44 44 44 43 43 44 45 46 46 46 45 46 46 45 43 41 39 38 37 37 38 39 38 36 32 31 33 34 35 37 39 39 39 39 38 38 39 41 42 44 46 47 45 46 48 47 45 45 45 44 43 42 41 42 42 42 42 38 34 34 32 29 27 26 26 24 24 24 22 18 16 17 20 28 35 38 36 32 30 30 34 40 45 44
43 43 43 42 41 42 43 44 45 45 45 44 44 47 47 44 42 40 39 38 38 40 41 39 37 31 29 32 32 34 36 38 39 38 38 39 38 38 39 42 43 43 45 45 47 47 44 42 42 42 41 40 40 39 41 42 42 43 39 35 37 37 33 30 28 27 24 23 24 23 21 19 17 18 21 27 34 37 35 32 30 30 32 38 44
41 42 41 40 40 41 41 43 44 43 41 41 43 46 46 45 43 40 40 40 40 42 41 39 37 32 31 33 33 35 37 37 38 37 37 39 39 39 41 42 42 41 43 45 45 44 42 41 42 41 39 38 38 38 39 40 41 41 38 36 38 39 37 34 31 29 25 24 24 23 22 21 19 18 18 21 26 32 36 34 32 30 30 32 35
40 41 40 40 40 40 40 41 42 41 40 41 43 46 46 46 44 41 40 41 41 43 42 39 37 36 36 37 36 37 38 38 40 40 39 41 43 44 45 45 43 42 44 46 46 45 43 42 43 42 41 41 39 38 39 40 40 39 37 37 39 40 39 38 35 31 26 24 25 23 21 21 20 19 18 19 21 25 31 35 34 32 31 31 33
38 38 38 39 40 39 40 39 39 40 40 41 44 46 46 46 45 42 40 41 41 42 42 39 39 41 43 43 43 43 42 40 41 44 45 47 49 49 50 50 51 51 53 54 53 51 48 46 46 46 44 45 43 40 40 40 40 40 38 37 39 41 41 40 38 34 29 25 25 25 21 20 20 20 20 19 19 21 24 30 33 33 32 30 30
38 38 37 37 38 38 38 38 39 40 41 43 45 45 46 46 44 42 40 39 40 40 40 39 40 43 45 47 48 49 49 44 44 48 50 50 53 55 58 59 59 59 60 59 55 55 55 52 51 50 47 45 44 42 41 40 40 39 37 37 39 42 42 42 41 36 31 26 26 27 23 20 19 20 21 21 20 20 21 23 27 32 34 33 30
37 40 40 37 36 36 36 37 39 41 42 45 46 45 44 44 42 41 40 39 39 40 41 41 42 44 45 46 48 50 51 49 49 51 50 51 55 59 62 63 63 62 63 61 54 53 57 56 54 53 49 46 44 44 43 42 41 38 36 37 39 41 42 43 43 37 32 28 26 27 25 22 20 19 20 21 21 22 22 21 22 26 32 35 34
36 38 39 38 36 35 36 36 38 42 43 44 45 45 43 41 41 41 40 40 40 41 42 42 43 45 44 44 47 49 51 50 52 53 51 53 55 57 59 59 60 59 58 57 51 50 53 56 58 56 52 49 46 45 45 45 44 40 39 39 39 41 42 43 44 38 32 30 28 27 27 23 21 20 20 20 21 22 23 23 23 22 25 30 33
35 35 35 36 36 36 35 35 38 43 45 45 46 46 44 42 41 41 39 40 41 41 43 43 44 45 44 44 46 48 50 50 53 54 52 53 53 55 58 60 60 59 57 55 51 51 52 56 61 59 56 54 50 48 47 46 46 43 42 41 39 42 42 42 44 40 33 31 29 28 28 25 23 22 21 21 21 21 22 23 25 25 23 24 26
34 35 35 34 35 36 35 35 38 41 44 48 49 46 44 41 41 41 40 41 42 43 43 42 44 45 44 44 44 46 48 49 51 52 52 52 52 53 58 61 62 59 58 57 56 55 55 58 62 62 61 59 55 51 48 47 47 44 44 43 41 42 41 41 44 41 35 34 31 30 29 26 23 23 22 23 22 22 22 22 23 25 26 25 24
35 35 36 35 35 35 36 37 39 40 42 48 50 46 42 39 39 40 40 41 42 42 43 43 44 45 42 43 44 46 47 47 48 49 49 50 51 53 56 57 58 59 58 59 58 57 56 57 60 62 62 60 57 53 49 49 47 45 46 45 43 43 41 41 44 41 36 35 34 32 31 29 26 23 23 23 24 24 24 23 23 23 24 27 27
37 36 36 35 35 34 35 37 39 41 43 46 47 45 41 37 37 38 39 40 40 41 42 43 44 44 43 43 45 46 47 46 47 48 49 50 50 52 52 52 55 57 55 55 55 54 53 53 55 58 58 58 56 53 50 49 48 47 47 44 44 44 41 42 44 40 36 35 35 33 31 29 27 25 23 23 24 25 26 25 25 25 24 24 26
37 37 35 34 34 34 35 36 37 38 40 42 43 42 39 37 37 39 39 39 38 39 41 42 43 44 44 45 44 45 46 46 48 50 50 52 52 52 51 51 53 54 52 51 51 50 49 49 51 54 54 54 53 52 52 50 47 47 47 44 43 43 41 42 43 40 36 34 34 33 31 29 28 26 25 24 24 25 26 27 27 27 26 25 25
37 36 34 33 33 34 35 36 35 34 36 40 42 42 41 39 39 39 38 37 37 37 38 40 41 42 43 45 44 45 46 46 50 52 51 54 56 54 52 50 50 51 51 50 49 48 47 48 48 50 51 49 49 52 53 50 47 46 46 43 43 41 41 42 42 40 36 33 33 32 30 29 27 26 25 25 24 24 26 27 28 27 27 27 27
40 38 36 33 32 33 33 33 34 34 34 37 39 40 43 43 43 41 37 38 37 35 36 38 39 40 41 44 44 44 46 47 51 52 51 53 55 54 52 49 49 49 49 50 48 48 48 47 47 47 48 47 48 51 53 50 47 45 44 43 41 41 41 41 41 40 35 31 30 31 31 29 27 27 27 26 25 24 24 24 25 27 27 27 28
43 41 40 38 35 34 33 33 33 33 34 34 33 35 38 40 43 42 38 39 40 37 36 37 38 40 41 43 44 44 46 47 49 51 51 51 52 51 50 49 48 48 47 48 47 47 47 47 46 45 45 46 48 50 51 51 47 44 44 42 40 40 41 41 41 39 34 30 29 30 30 29 28 27 28 28 26 25 24 24 23 24 25 25 26
47 45 44 43 41 39 38 36 35 34 34 34 33 33 33 32 35 38 37 38 41 40 37 36 39 42 44 45 45 45 46 46 46 48 49 50 49 49 49 48 47 47 47 47 46 46 46 45 44 44 44 45 47 48 49 49 47 44 44 42 39 40 42 42 41 39 34 30 29 30 31 30 29 28 28 28 28 27 26 25 24 23 23 22 23
50 49 49 48 47 45 43 41 38 36 36 35 34 33 33 32 32 33 33 34 38 41 39 37 37 40 45 47 47 47 47 45 45 46 46 48 48 48 49 48 48 47 47 46 45 45 45 45 44 44 44 44 45 46 47 46 45 45 44 43 40 39 41 42 41 39 35 31 29 30 31 31 30 29 29 29 29 29 28 27 27 25 24 22 21
52 53 53 53 53 49 46 44 41 39 37 36 36 34 34 35 34 32 32 31 33 38 40 39 38 38 43 46 48 49 49 47 47 47 46 46 47 47 48 47 47 46 46 46 47 48 48 47 45 45 44 44 45 45 44 43 43 44 44 43 40 37 38 40 39 39 37 33 31 30 31 32 31 31 31 31 31 30 29 28 28 27 27 25 23
56 56 56 56 58 55 49 45 42 41 39 37 37 36 35 36 37 34 34 33 33 35 37 39 39 39 40 43 45 47 48 47 47 48 47 46 46 47 47 47 49 51 51 52 52 51 49 45 44 43 42 43 45 44 41 41 43 43 42 41 39 35 36 36 36 37 36 35 33 32 31 31 32 34 34 34 33 31 30 29 28 28 28 27 26
58 59 57 56 58 58 54 50 45 42 42 42 41 39 38 39 39 37 36 36 36 36 36 37 38 38 39 41 43 43 43 42 41 42 43 44 46 47 47 49 52 56 57 56 54 51 47 43 40 39 39 41 42 40 39 40 41 39 39 39 38 35 33 33 33 35 36 35 33 32 31 30 33 35 35 35 33 31 30 29 29 29 29 29 28
59 60 59 57 56 56 55 54 50 45 43 46 46 44 42 42 42 41 39 37 37 38 39 39 38 37 38 40 43 44 43 40 37 36 37 40 43 44 45 49 52 54 55 54 52 50 47 42 40 38 39 39 38 38 39 41 40 39 38 37 36 34 32 31 33 34 34 33 33 33 31 31 33 35 34 34 32 31 31 31 30 29 29 29 29
61 62 62 60 57 55 55 55 53 49 46 47 49 48 46 46 45 46 44 40 39 39 40 42 42 40 38 39 41 42 40 38 36 36 35 37 39 41 44 48 50 51 52 51 50 50 48 43 40 39 38 36 36 39 40 41 40 39 37 36 36 34 33 32 32 33 32 31 32 33 32 31 33 33 33 34 33 33 33 32 31 30 29 30 29
59 60 61 61 59 58 57 56 55 54 52 51 52 53 52 49 46 48 50 48 44 42 41 42 43 41 39 38 38 38 37 37 37 37 37 38 40 42 46 48 48 50 53 52 52 51 47 42 39 39 38 36 37 40 40 39 40 40 38 37 36 35 35 34 33 33 33 33 33 34 34 33 32 31 32 34 34 34 34 34 33 32 30 30 30
55 55 57 59 60 61 61 60 59 58 56 53 53 55 56 52 47 47 51 51 48 45 45 46 46 44 41 40 39 39 40 40 40 40 39 38 42 46 47 47 49 52 55 54 51 47 44 41 39 37 36 36 37 38 38 38 39 39 38 36 35 36 36 35 36 36 35 34 34 35 36 34 32 32 31 33 34 35 37 37 37 36 34 32 30
50 51 51 54 57 60 62 63 63 61 59 57 55 56 57 55 51 49 48 48 47 47 47 47 48 47 45 43 43 43 43 43 43 43 42 41 43 47 49 51 53 55 54 51 48 45 40 37 34 32 32 33 34 35 37 37 37 36 35 35 36 36 36 36 37 37 36 35 35 36 36 34 33 33 32 33 34 37 40 41 40 39 38 37 34
48 49 49 50 52 54 56 59 62 62 61 59 57 56 55 54 53 51 50 49 49 49 48 48 48 49 47 45 45 45 46 44 43 43 42 43 46 48 51 54 55 55 53 50 48 44 38 32 30 28 27 28 30 31 32 32 34 34 34 35 35 34 34 35 36 36 35 35 36 36 36 35 34 35 35 35 36 37 39 40 39 40 40 40 39
47 48 48 49 51 52 51 53 57 59 60 59 57 55 55 54 53 52 53 52 51 50 49 48 48 48 46 46 46 50 53 51 49 48 45 46 50 50 50 51 53 53 51 49 47 43 34 28 26 24 23 23 25 27 28 28 31 31 31 31 33 35 36 36 35 33 33 35 36 38 38 36 36 38 38 38 38 38 38 38 39 40 40 40 40
48 49 49 49 50 51 50 50 52 55 57 58 57 56 56 56 55 54 53 53 53 54 53 51 49 48 47 47 50 56 60 58 58 59 54 52 54 53 48 47 47 47 44 41 38 33 28 24 23 22 21 21 22 24 26 27 28 29 29 30 32 34 34 32 33 33 34 35 38 40 40 39 38 39 39 38 38 39 40 40 41 41 40 40 40
48 48 50 51 52 52 52 53 53 53 54 56 58 57 57 55 55 55 55 56 58 61 62 60 55 54 55 54 54 60 64 61 60 63 61 58 57 56 52 47 44 42 38 33 28 25 24 23 23 23 23 24 26 27 28 28 29 31 33 34 34 33 32 31 33 35 37 38 39 40 41 41 39 39 39 38 38 39 42 43 44 44 44 44 43
44 44 45 48 51 53 55 56 57 56 55 57 57 58 58 57 57 57 57 58 60 64 68 67 63 62 64 60 58 62 66 64 63 64 62 60 59 58 54 49 45 40 34 30 26 25 25 25 26 28 30 32 33 33 34 35 36 37 38 38 37 38 38 37 37 40 41 41 41 41 43 43 41 41 41 40 40 41 43 44 45 47 49 50 49
42 41 42 44 47 50 53 56 58 59 59 58 57 57 58 59 60 60 60 60 60 61 65 69 71 69 66 63 61 64 65 64 64 63 62 61 60 58 54 48 44 40 36 31 28 27 28 29 29 31 33 34 36 38 40 42 43 45 44 44 44 45 45 46 46 45 45 43 42 43 44 46 46 46 45 44 43 43 42 42 45 50 54 55 54
47 44 43 43 44 47 50 53 56 59 62 62 59 57 58 59 59 59 61 64 65 63 62 67 72 70 66 64 63 62 61 61 62 64 63 61 58 55 54 52 50 47 44 42 39 36 34 33 32 30 31 33 35 38 41 44 46 48 49 49 50 51 52 52 51 49 46 44 45 46 48 50 51 50 49 46 44 43 41 44 49 54 56 57 56
58 54 52 50 51 52 52 51 52 56 59 61 61 59 59 59 58 59 61 65 68 67 65 66 69 69 68 66 61 59 60 61 62 62 62 62 59 55 55 57 56 54 51 49 47 44 40 37 36 34 32 32 33 36 40 43 45 46 47 50 52 53 55 56 54 51 46 44 47 50 52 52 52 49 48 48 46 45 47 51 55 56 56 56 56
66 63 62 62 64 64 62 59 57 57 59 63 66 66 60 54 53 55 57 60 64 66 67 68 69 70 70 68 64 62 62 61 60 59 61 64 63 58 56 57 57 55 53 52 49 44 40 39 39 37 36 36 35 36 37 39 40 39 41 48 53 55 58 59 58 54 48 44 48 51 51 49 49 48 49 51 51 52 54 57 58 57 57 57 58
69 68 68 70 72 73 73 73 71 69 68 69 71 71 64 56 53 54 55 55 56 57 61 64 66 66 66 67 67 66 66 65 61 57 58 63 64 59 57 58 58 57 57 57 54 49 45 44 43 42 41 41 41 40 38 35 35 34 37 45 53 58 61 61 60 57 51 48 51 52 49 48 48 49 50 52 54 56 57 58 58 59 60 61 63
74 73 72 72 74 75 76 78 80 79 77 75 74 74 71 66 64 65 65 61 56 54 57 63 66 67 68 71 70 69 69 70 65 59 57 60 62 61 60 60 61 62 63 63 61 57 52 50 48 46 45 44 43 41 38 35 33 33 36 43 49 54 57 58 58 56 52 51 52 51 52 53 53 52 52 51 54 56 56 57 58 59 60 62 64
77 75 73 74 77 79 79 81 84 86 85 82 78 77 76 73 70 71 72 71 68 65 65 68 69 71 74 79 80 77 74 72 70 67 62 60 61 63 64 64 63 63 65 66 65 62 59 57 54 50 48 46 43 42 41 39 38 37 39 42 46 51 53 54 55 55 52 50 50 49 51 53 54 56 54 49 49 54 57 58 58 58 59 61 60
76 76 75 78 83 84 82 81 86 90 91 88 83 80 78 76 74 73 73 74 75 76 76 74 71 70 72 76 79 79 77 75 74 73 69 65 63 63 64 65 63 62 63 66 67 65 63 63 63 59 54 49 48 49 49 47 46 46 46 47 50 52 52 53 54 53 51 49 48 47 48 49 50 53 54 50 49 52 55 57 58 57 56 55 52